Flag for Spain Weather past 2 weeks in Barcelona, Barcelona, Spain

Now
55 °F

Passing clouds.


Feels Like: 54 °F
Forecast: 56 / 69 °F
Wind: 6 mph from Northeast

Location: Barcelona Airport


UV Index: 5 (Moderate)

Visibility: N/A


Pressure: 29.62 "Hg

Humidity: 88%

Dew point: 52 °F

Location of BarcelonaLocation

Historic Weather in Barcelona

°F

Barcelona temperature yesterday

Maximum temperature yesterday: 63 °F (at 4:00 PM)
Minimum temperature yesterday: 54 °F (at 5:00 AM)
Average temperature yesterday: 58 °F

Past Weeks' High & Low Weather Summary

 TemperatureHumidityPressure
High68 °F (Apr 6, 2:30 PM)100% (Apr 7, 9:30 PM)30.24 "Hg (Apr 7, 9:30 PM)
Low54 °F (Apr 6, 3:00 AM)43% (Apr 6, 3:00 PM)29.59 "Hg (Apr 20, 5:30 PM)
Average60 °F75%30.01 "Hg
* Reported Apr 6 3:00 AM — Apr 21 3:30 AM, Barcelona, Weather by CustomWeather, © 2014

Note: Actual official high and low records may vary slightly from our data, if they occured in-between our weather recording intervals... More about our weather records

Advertising

Historic Weather Conditions — Data for Previous 24 hours

 ConditionsComfort  
Time TempWeatherWind HumidityBarometerVisibility
3:30 AM
Apr 21
57 °FPassing clouds.5 mph88%29.62 "HgN/A
3:00 AM57 °FPassing clouds.5 mph88%29.65 "HgN/A
2:30 AM57 °FPassing clouds.3 mph88%29.65 "HgN/A
2:00 AM57 °FPassing clouds.2 mph88%29.65 "HgN/A
1:30 AM57 °FPassing clouds.3 mph88%29.65 "HgN/A
1:00 AM57 °FPassing clouds.3 mph88%29.65 "HgN/A
12:30 AM57 °FPassing clouds.2 mph88%29.68 "HgN/A
12:00 AM59 °FPassing clouds.3 mph82%29.68 "HgN/A
11:00 PM
Apr 20
57 °FPassing clouds.3 mph88%29.68 "HgN/A
10:30 PM59 °FPassing clouds.3 mph82%29.68 "HgN/A
10:00 PM59 °FPassing clouds.3 mph82%29.65 "HgN/A
9:30 PM59 °FPassing clouds.3 mph82%29.65 "HgN/A
9:00 PM59 °FPartly sunny.6 mph77%29.65 "HgN/A
8:30 PM59 °FBroken clouds.7 mph82%29.62 "HgN/A
8:00 PM59 °FBroken clouds.8 mph77%29.62 "HgN/A
7:30 PM59 °FScattered clouds.9 mph77%29.62 "HgN/A
7:00 PM61 °FScattered clouds.10 mph72%29.62 "HgN/A
6:30 PM61 °FScattered clouds.13 mph72%29.62 "HgN/A
6:00 PM61 °FScattered clouds.14 mph72%29.59 "HgN/A
5:30 PM63 °FScattered clouds.14 mph68%29.59 "HgN/A
5:00 PM63 °FPartly sunny.13 mph68%29.62 "HgN/A
4:30 PM63 °FPartly sunny.10 mph68%29.62 "HgN/A
4:00 PM63 °FPartly sunny.10 mph68%29.62 "HgN/A
3:30 PM61 °FPartly sunny.8 mph68%29.62 "HgN/A
3:00 PM61 °FPartly sunny.9 mph68%29.62 "HgN/A
2:30 PM59 °FPartly sunny.9 mph72%29.62 "HgN/A
2:00 PM59 °FPartly sunny.9 mph72%29.62 "HgN/A
1:30 PM59 °FPartly sunny.12 mph72%29.62 "HgN/A
1:00 PM59 °FPartly sunny.12 mph72%29.62 "HgN/A
12:30 PM59 °FPartly sunny.9 mph72%29.62 "HgN/A
12:00 PM59 °FPartly sunny.9 mph77%29.62 "HgN/A
11:30 AM59 °FPartly sunny.8 mph77%29.62 "HgN/A
11:00 AM57 °FDrizzle. Partly sunny.10 mph82%29.62 "Hg6 mi
10:30 AM57 °FPartly sunny.6 mph77%29.62 "HgN/A
10:00 AM55 °FPartly sunny.6 mph82%29.62 "HgN/A
9:30 AM55 °FPartly sunny.7 mph82%29.62 "HgN/A
9:00 AM54 °FPartly sunny.7 mph88%29.62 "HgN/A
8:30 AM54 °FDrizzle. Partly sunny.9 mph88%29.62 "HgN/A
8:00 AM54 °FPassing clouds.7 mph82%29.62 "HgN/A
7:30 AM54 °FPassing clouds.7 mph82%29.62 "HgN/A
7:00 AM54 °FPassing clouds.10 mph82%29.62 "HgN/A
6:30 AM54 °FPassing clouds.7 mph82%29.62 "HgN/A
6:00 AM54 °FPassing clouds.7 mph82%29.62 "HgN/A
5:30 AM54 °FPassing clouds.5 mph94%29.62 "HgN/A
5:00 AM54 °FPassing clouds.6 mph88%29.62 "HgN/A
4:30 AM55 °FPassing clouds.9 mph82%29.65 "HgN/A
4:00 AM55 °FPassing clouds.5 mph88%29.65 "HgN/A
Weather by CustomWeather, © 2014

See weather overview